Weather in Cala Bona

Spain     39°36′44″N   3°23′22″E
temp.,
°C
wind,
m/s
gust,
m/s
humid.,
%
clouds,
%
prec.,
mm/h
press.,
hPa
HPBL,
m
11 may, tue
tue1123:00+17ssw91187100 0.4 1012625
02:00+18ssw911821 0.8 1012669
05:00+17sw811820 0.4 1010367
08:00+17wsw912740 0.4 1011524
11:00+18wsw910650 0.0 1014556
14:00+18nw685990 0.0 1015260
17:00+19wnw69485 0.0 1016213
20:00+18wnw56495 0.0 1017106
12 may, wed
wed1223:00+17wsw69621 0.0 1019382
02:00+17wsw710700 0.0 1019406
05:00+16w58820 0.0 1017279
08:00+17wsw45770 0.0 1017214
11:00+18sw8107412 0.0 1016344
14:00+20wsw1115535 0.0 1015343
17:00+20wsw12155437 0.0 1014339
20:00+19wsw8116799 0.0 1014202
13 may, thu
thu1323:00+18wsw7108298 0.0 1014189
02:00+17wsw611845 0.0 1014200
05:00+17ene77775 0.0 1014406
08:00+16ene547169 0.0 1015643
11:00+16e326622 0.0 1016556
14:00+17sse547088 0.0 1015463
17:00+17ese43715 0.0 1013322
20:00+18sw676525 0.0 1012297
14 may, fri
fri1423:00+17sw587399 0.0 1013303
02:00+18ssw7117960 0.0 1011340
05:00+18sw7984100 0.0 1009325
08:00+18w2282100 0.1 101052
11:00+19nne4470100 0.0 101193
14:00+18n9106990 0.0 1012486
17:00+17n10117332 0.4 1013689
20:00+16nne1010706 0.5 1015974
15 may, sat
sat1523:00+15nne2360100 0.0 1018359
02:00+16ssw336213 0.0 1018292
05:00+16wsw577022 0.0 1018426
08:00+16wsw4670100 0.0 1018291
11:00+18sw566840 0.0 1019381
14:00+18sw91169100 0.0 1018379
17:00+18sw9116997 0.0 1017338
20:00+19sw71068100 0.0 1018222